Weather History for Red Bluff, CA

Change the Weather History Date:

Friday, February 22, 2013

  Actual Average Record
Temperature  
Mean Temperature 52 °F -  
Max Temperature 63 °F 62 °F 78 °F (1985)
Min Temperature 41 °F 41 °F 30 °F (1942)
Degree Days  
Heating Degree Days 13    
Growing Degree Days 2 (Base 50)    
Moisture  
Dew Point 33 °F    
Average Humidity 47    
Maximum Humidity 66    
Minimum Humidity 21    
Precipitation  
Precipitation 0.00 in - - ()
Sea Level Pressure  
Sea Level Pressure 30.17 in    
Wind  
Wind Speed 7 mph (NNW)    
Max Wind Speed 10 mph    
Max Gust Speed -    
Visibility 10 miles    
Events      
Averages and records for this station are not official NWS values.
T = Trace of Precipitation, MM = Missing Value Source: NWS Daily Summary

Daily Weather History Graph

Daily Weather History Graph

Search for Another Location

Airport:

Trip Planner

Search our weather history database for the weather conditions in past years. The results will help you decide how hot, cold, wet, or windy it might be!

Date:

Astronomy

Feb. 22, 2013 Rise Set
Actual Time 6:52 AM PST 5:53 PM PST
Civil Twilight 6:24 AM PST 6:20 PM PST
Nautical Twilight 5:53 AM PST 6:52 PM PST
Astronomical Twilight 5:21 AM PST 7:23 PM PST
Moon 3:09 PM PST (2/22) 4:41 AM PST (2/22)
Length of Visible Light 11h 56m
Length of Day
11h 01m
Waxing Gibbous, 91% of the Moon is Illuminated
Feb 22
Waxing Gibbous
Feb 25
Full
Mar 4
Last Quarter
Mar 11
New
Mar 19
First Quarter

Hourly Weather History & Observations

Time (PST) Temp. Windchill Dew Point Humidity Pressure Visibility Wind Dir Wind Speed Gust Speed Precip Events Conditions
12:54 AM 48.9 °F - 28.9 °F 46% 30.17 in 10.0 mi NNW 10.4 mph - N/A   Clear
1:54 AM 46.0 °F 43.9 °F 28.9 °F 51% 30.20 in 10.0 mi NNW 4.6 mph - N/A   Clear
2:54 AM 44.1 °F 39.5 °F 30.0 °F 58% 30.19 in 10.0 mi NNW 8.1 mph - N/A   Clear
3:54 AM 45.0 °F 41.2 °F 30.0 °F 56% 30.19 in 10.0 mi NNW 6.9 mph - N/A   Clear
4:54 AM 45.0 °F 40.6 °F 30.0 °F 56% 30.21 in 10.0 mi NNW 8.1 mph - N/A   Clear
5:54 AM 41.0 °F 35.8 °F 30.0 °F 65% 30.21 in 10.0 mi NNW 8.1 mph - N/A   Clear
6:54 AM 42.1 °F 36.6 °F 30.0 °F 62% 30.22 in 10.0 mi North 9.2 mph - N/A   Clear
7:54 AM 44.1 °F 39.0 °F 30.0 °F 58% 30.23 in 10.0 mi North 9.2 mph - N/A   Clear
8:54 AM 48.0 °F - 32.0 °F 54% 30.24 in 10.0 mi North 9.2 mph - N/A   Clear
9:54 AM 53.1 °F - 30.9 °F 43% 30.24 in 10.0 mi NNE 8.1 mph - N/A   Clear
10:54 AM 55.9 °F - 30.0 °F 37% 30.24 in 10.0 mi NNE 5.8 mph - N/A   Scattered Clouds
11:54 AM 57.9 °F - 30.9 °F 36% 30.22 in 10.0 mi Calm Calm - N/A   Clear
12:54 PM 60.1 °F - 28.9 °F 31% 30.19 in 10.0 mi Calm Calm - N/A   Clear
1:54 PM 61.0 °F - 30.0 °F 31% 30.15 in 10.0 mi SSE 5.8 mph - N/A   Clear
2:54 PM 62.1 °F - 32.0 °F 32% 30.14 in 10.0 mi SSE 6.9 mph - N/A   Clear
3:54 PM 61.0 °F - 30.9 °F 32% 30.12 in 10.0 mi SSE 9.2 mph - N/A   Clear
4:54 PM 57.9 °F - 35.1 °F 42% 30.11 in 10.0 mi South 10.4 mph - N/A   Clear
5:54 PM 55.9 °F - 37.0 °F 49% 30.14 in 10.0 mi South 3.5 mph - N/A   Mostly Cloudy
6:54 PM 55.0 °F - 37.0 °F 51% 30.12 in 10.0 mi SSE 8.1 mph - N/A   Overcast
7:54 PM 54.0 °F - 37.0 °F 53% 30.12 in 10.0 mi SSE 8.1 mph - N/A   Overcast
8:54 PM 54.0 °F - 37.0 °F 53% 30.13 in 10.0 mi South 3.5 mph - N/A   Overcast
9:54 PM 53.1 °F - 37.9 °F 57% 30.14 in 10.0 mi Calm Calm - N/A   Overcast
10:54 PM 51.1 °F - 37.9 °F 61% 30.11 in 10.0 mi South 5.8 mph - N/A   Mostly Cloudy
11:54 PM 48.9 °F - 37.9 °F 66% 30.12 in 10.0 mi SSW 6.9 mph - N/A   Mostly Cloudy